Voltar ao catálogo

STARLINK-35449

AtivoComunicaçõesVLEO
NORAD 66459·PAYLOAD·🇺🇸 United States

Lançado Nov 15, 2025 de Cape Canaveral Space Force Station

Loading…

Próximas Passagens (próximas 24 horas)

TLE

AtualizadoSource: CelesTrak SupGP

Época: Sep 14, 2026, 20:41 UTC

1 66459C 25262D   26257.86229167 -.00023563  00000+0 -85357-3 0  2578
2 66459  43.0010 307.9457 0001262 270.6029 193.6677 15.27586180    15

Acompanhe STARLINK-35449 em tempo real com AllMySat

Download on the App Store